RH
100 100 99 99 99 99 98 98 98 97 98 98 98 97 97 99 97 96 97 94 93 91 92 94 91 90 88 87 88 73 58 61 59 46 39 35 29 22 20 22 19 15 12 15 19 18 17 13 12 12 10 9 8 8 7 6 6 7 9 10 10 9 7 5 4 4 4 3 4 5 5 7 6 5 4 7 8 8 8 4 13 28 32 37 39 46 56 61
100 100 100 100 100 100 99 99 98 98 98 97 97 98 99 99 99 100 98 96 93 90 92 93 91 88 81 80 75 60 65 75 63 43 31 27 27 24 20 16 12 11 10 14 16 15 14 11 10 9 9 9 7 7 6 6 6 8 9 9 9 7 6 4 4 3 4 4 4 5 5 6 6 5 5 8 9 8 9 3 19 42 42 49 53 53 61 64
100 100 100 100 100 100 100 100 100 100 99 99 99 100 100 100 100 100 100 99 96 95 92 84 86 84 77 74 58 53 76 74 50 37 29 25 24 22 20 14 9 9 9 14 14 13 12 9 8 7 8 8 6 7 6 6 7 8 8 9 8 5 5 4 3 3 4 5 5 5 4 5 5 5 5 8 9 8 10 4 17 47 51 54 59 58 64 70
100 100 100 100 100 99 99 99 100 100 100 100 100 100 100 100 100 100 100 100 97 97 90 78 79 77 71 63 48 58 78 61 37 30 26 25 22 17 18 15 8 7 10 14 15 14 11 8 8 7 7 7 6 6 6 6 7 7 7 8 6 5 4 3 3 3 4 5 5 5 4 6 5 5 6 6 8 7 10 6 8 35 53 56 61 63 67 75
100 100 100 100 100 101 100 100 100 99 100 100 100 100 100 100 100 100 99 99 96 93 92 86 78 71 64 47 41 65 72 46 28 25 23 21 16 13 14 13 7 8 13 17 18 15 11 8 7 6 7 7 6 6 6 5 6 6 6 6 5 4 4 4 4 4 4 5 5 6 5 6 4 4 6 5 8 8 8 9 8 24 47 56 63 67 70 76
101 98 100 101 97 96 96 97 99 99 100 99 100 99 99 100 100 100 98 98 98 96 93 83 71 66 53 34 41 66 61 37 23 21 20 15 13 10 11 12 7 10 17 19 18 13 9 7 7 7 7 6 6 6 6 5 5 6 6 5 5 5 5 4 4 4 5 5 5 6 5 4 5 5 6 4 6 8 8 15 24 30 41 52 60 67 71 76
101 91 91 90 75 69 72 75 82 91 99 99 96 97 99 100 99 99 99 99 93 83 74 61 57 55 40 36 52 63 54 37 24 20 18 13 11 9 9 9 8 15 21 20 16 10 7 7 6 6 6 6 6 5 5 5 5 5 6 5 5 4 5 4 4 4 4 5 5 5 5 4 6 6 5 6 6 7 10 21 34 38 43 50 57 65 70 74
98 81 71 64 52 52 57 58 63 74 84 83 79 83 91 97 101 99 100 96 74 59 55 49 48 41 39 55 56 47 44 34 24 18 14 12 9 7 9 11 15 20 20 20 15 8 7 6 6 6 6 6 5 5 5 5 5 5 6 6 5 4 4 4 4 4 4 4 5 4 5 5 5 5 4 6 6 8 14 25 34 38 44 50 58 65 69 73
87 66 55 49 45 49 52 55 58 60 63 62 62 68 74 80 86 85 88 82 61 51 46 42 42 34 48 68 54 38 30 22 21 18 12 13 10 8 11 15 19 19 17 17 12 8 7 6 5 5 5 5 5 5 4 5 6 5 6 5 5 4 3 4 4 4 4 4 4 5 5 5 5 5 5 4 6 10 16 28 34 37 44 50 59 66 69 74
75 54 47 44 40 38 43 50 50 44 44 50 58 61 59 60 62 65 69 62 54 49 35 32 35 38 56 62 51 41 22 14 21 17 15 16 13 13 15 16 16 15 15 12 9 8 7 6 5 5 5 5 5 6 5 5 5 4 5 5 4 4 3 4 5 4 5 4 5 5 5 5 4 5 6 4 9 13 15 27 33 36 44 49 57 64 67 72
69 50 42 38 34 28 32 38 34 28 29 42 54 50 45 44 46 53 54 47 46 42 31 30 32 48 64 53 46 39 15 12 17 14 16 16 14 16 17 17 14 12 13 10 9 8 6 6 6 6 7 6 6 6 5 4 4 4 5 6 5 5 5 4 5 5 5 5 5 5 5 5 5 6 7 7 13 14 16 27 31 33 39 45 53 58 60 65
63 48 38 30 27 22 24 27 24 24 24 31 37 33 29 29 32 40 42 37 34 31 31 30 34 59 69 52 45 33 12 12 13 12 16 14 14 15 15 17 13 11 11 9 8 6 6 7 7 8 7 7 8 5 5 4 4 5 5 7 6 5 6 5 5 5 5 5 4 5 6 6 5 7 6 9 14 13 18 28 32 34 37 43 52 54 58 66
64 48 34 24 21 17 18 20 19 21 21 22 24 23 22 22 28 34 35 34 27 27 34 31 41 69 69 47 34 20 12 13 11 12 14 14 14 14 14 14 11 12 12 9 7 6 7 7 7 8 7 9 9 6 7 6 5 6 5 6 6 6 6 5 5 5 5 5 4 5 8 7 6 6 6 10 13 12 20 27 31 36 36 40 50 57 65 74
66 47 31 21 17 14 14 16 17 18 18 19 19 18 17 22 33 37 35 32 26 29 37 35 46 70 68 45 23 11 15 14 11 12 11 12 12 11 12 10 11 11 10 10 7 7 7 7 7 7 7 8 7 7 7 7 7 6 6 6 6 7 6 5 5 5 5 4 4 6 9 8 5 6 7 10 11 12 22 26 27 33 36 39 51 61 67 75
52 39 27 19 14 12 13 13 15 16 17 17 16 17 17 26 41 42 36 32 29 30 38 46 57 65 58 40 20 11 15 14 12 12 10 10 9 8 8 8 9 9 8 9 7 8 8 7 8 8 8 7 6 7 7 7 7 6 7 8 7 7 6 5 5 5 5 5 6 6 8 8 5 6 7 9 9 12 23 28 25 28 37 45 55 61 64 75
37 30 20 14 11 10 11 12 14 15 16 16 16 15 18 35 47 45 41 35 30 33 47 60 64 62 48 29 18 13 12 13 13 11 10 9 8 6 7 7 8 7 8 8 7 8 7 7 8 8 8 8 8 8 7 8 8 7 8 9 8 7 6 7 6 5 5 5 6 6 8 7 6 7 6 9 8 10 23 29 26 28 40 49 53 57 59 70
31 22 12 10 9 9 10 12 13 14 15 15 15 17 28 46 50 47 47 37 31 43 55 52 46 50 43 24 18 15 11 12 12 11 9 8 8 7 7 8 7 8 8 7 8 8 8 8 8 9 9 9 9 8 10 12 11 10 8 8 8 7 7 7 7 6 5 6 7 7 7 6 7 9 7 8 7 8 20 26 25 27 39 47 47 50 51 60
25 17 12 10 8 9 10 10 12 13 15 14 17 29 44 53 49 52 55 42 42 55 55 45 39 40 35 22 19 15 12 13 12 11 10 8 9 8 7 8 7 8 8 8 9 7 9 9 9 12 11 10 10 9 13 14 11 12 12 10 8 8 8 7 8 7 6 7 8 7 7 6 7 9 7 7 7 7 14 23 25 27 36 43 43 46 47 51
22 17 14 11 9 9 8 10 12 13 14 16 30 52 65 68 63 64 62 49 47 46 36 35 37 32 23 18 15 12 12 13 11 10 10 9 10 9 8 8 7 8 9 11 10 9 10 11 11 14 14 13 12 11 15 15 13 14 15 12 9 9 8 7 8 7 7 8 8 7 7 7 7 8 8 7 8 8 9 17 27 32 38 38 39 44 45 45
22 15 13 10 10 9 9 11 12 14 16 23 49 71 72 65 59 57 53 46 41 30 21 22 24 19 14 12 12 12 12 11 10 10 10 10 10 9 8 8 9 9 10 12 12 10 10 13 15 14 14 18 18 18 18 17 16 15 15 12 9 10 9 7 8 7 8 10 9 8 8 7 7 7 8 7 8 10 9 13 22 32 40 36 34 40 42 41
22 14 12 11 11 10 11 12 13 16 18 31 58 67 51 34 30 34 34 33 31 24 21 18 15 13 10 10 11 11 11 11 10 10 10 10 9 9 9 9 10 11 11 11 13 13 13 16 17 13 15 19 20 20 20 18 17 15 15 13 10 10 9 8 10 9 9 12 11 9 9 8 8 8 8 8 8 10 10 12 15 21 30 32 28 32 37 38
24 14 11 13 14 14 15 15 16 16 21 44 63 54 35 21 18 23 24 24 24 19 17 15 13 11 9 11 11 10 11 12 11 10 9 9 9 10 10 9 11 12 11 10 12 16 18 17 14 11 15 18 17 17 18 18 16 15 14 13 11 9 8 11 14 11 9 12 12 10 10 10 8 8 9 10 10 10 11 12 13 13 17 23 26 31 37 41
26 16 11 16 16 17 19 18 22 21 27 51 58 40 26 19 17 19 22 27 25 18 15 13 12 11 10 12 11 10 11 12 12 10 9 9 9 9 9 9 10 10 10 11 13 15 17 15 14 13 15 17 16 15 17 17 15 14 13 12 12 9 9 12 14 14 12 13 13 12 13 15 11 10 11 11 10 11 12 11 13 12 12 18 28 36 41 45
26 21 14 16 17 18 24 28 30 26 26 38 41 29 20 17 19 22 25 31 29 21 17 12 10 10 10 10 10 11 11 11 12 10 9 9 9 9 9 10 9 9 9 10 12 13 12 13 14 15 16 16 15 15 16 17 16 14 14 13 12 11 10 11 14 17 17 16 17 17 18 17 14 12 12 11 11 12 12 10 10 11 10 14 28 41 43 45
23 27 17 14 18 18 27 36 31 24 26 31 32 27 20 18 21 25 31 36 34 26 17 11 10 8 7 9 10 10 9 11 10 9 9 8 8 9 9 8 9 11 8 7 10 11 12 16 16 14 15 13 15 16 14 18 18 14 14 13 12 12 12 13 14 17 21 21 19 20 23 19 12 12 12 11 11 12 12 11 10 11 10 9 24 43 43 40
19 27 21 16 17 18 31 40 32 26 27 25 25 22 17 19 24 28 38 45 41 30 18 11 10 9 8 10 10 9 11 12 9 8 9 8 8 8 10 9 8 10 8 8 10 8 10 16 16 15 15 14 15 15 13 16 18 19 20 16 12 13 14 15 15 16 22 22 17 18 24 23 15 13 12 10 11 12 12 13 12 12 12 9 20 39 43 39
17 23 24 18 14 22 37 39 31 26 22 19 21 19 16 22 28 30 42 54 46 28 17 11 9 10 11 11 9 11 15 14 9 8 9 9 8 8 11 12 9 9 8 10 13 12 12 14 15 16 15 16 16 15 14 14 15 23 25 19 13 14 16 16 15 16 19 18 17 16 18 22 20 15 12 10 12 12 13 16 13 11 12 12 14 24 33 38
16 19 25 20 13 21 30 32 32 27 21 19 18 18 20 26 31 35 51 61 41 19 14 11 9 11 10 10 10 10 13 12 12 12 9 8 9 9 11 11 10 10 9 11 15 15 15 15 16 17 16 16 14 12 13 13 15 20 20 16 15 16 17 17 16 17 17 19 21 17 16 22 23 16 12 11 13 15 16 17 15 11 10 11 11 12 17 26
16 17 24 21 14 16 18 27 38 29 19 19 19 22 25 29 34 41 58 61 33 13 14 13 11 13 11 11 12 10 10 11 13 12 8 9 9 9 11 10 9 10 9 10 13 13 13 13 13 14 15 15 13 11 10 12 15 16 15 15 16 16 16 17 19 19 20 25 26 20 18 23 24 18 14 15 14 15 17 16 14 12 10 11 12 13 14 18
16 15 20 21 20 25 27 32 36 26 19 22 25 27 27 32 39 50 61 53 28 16 14 12 13 12 11 13 13 11 11 11 11 10 9 10 9 9 10 9 10 11 11 11 11 11 10 11 11 12 13 12 11 11 9 11 13 14 16 17 16 17 16 18 19 19 25 31 27 20 18 22 24 19 18 22 17 14 17 17 15 16 14 14 17 17 15 16
15 14 18 22 25 33 41 40 35 29 27 30 31 29 30 34 40 51 53 34 21 18 12 11 13 11 12 14 12 12 12 12 11 10 11 11 11 11 11 12 12 12 14 14 14 12 10 12 12 10 10 9 9 10 9 10 11 13 15 16 19 19 18 22 22 23 32 34 24 18 18 20 23 22 22 22 15 14 21 21 21 24 20 18 19 16 14 14
14 14 15 19 22 27 34 36 35 35 35 37 37 32 34 42 44 47 39 22 21 21 12 12 12 9 12 12 11 12 11 12 11 10 11 11 13 14 13 15 15 16 19 17 16 17 15 13 11 10 9 8 9 10 9 9 10 12 13 16 24 27 29 33 31 32 37 31 23 21 22 22 21 20 20 17 13 14 19 20 22 24 22 20 18 15 16 16
12 13 12 13 19 25 30 36 38 39 40 42 41 33 35 46 47 37 26 19 20 16 10 12 11 9 12 11 11 11 11 12 11 11 11 10 13 14 13 13 12 17 21 19 20 21 19 16 13 12 11 8 10 11 11 11 10 13 13 16 25 31 38 42 36 38 38 31 27 25 24 23 22 21 16 12 13 14 15 18 21 21 21 20 16 14 17 18
10 11 11 10 17 20 23 34 39 39 43 41 36 34 40 48 41 28 21 15 13 11 11 12 10 10 10 10 10 9 10 13 10 11 12 11 14 15 14 13 11 14 18 20 22 22 23 23 17 15 13 10 10 9 11 10 10 12 11 13 21 25 33 38 35 35 33 28 27 25 24 24 27 31 21 12 15 14 13 17 19 20 19 17 15 16 21 24
9 11 13 16 23 19 17 30 37 40 44 36 27 32 41 44 34 23 19 12 9 11 11 10 9 11 11 9 9 7 9 12 10 11 11 11 14 15 14 14 12 13 16 19 20 17 20 21 14 11 10 9 10 9 8 9 11 12 9 12 18 18 22 28 29 28 26 27 26 24 24 22 26 30 20 14 16 13 13 15 15 17 16 17 19 21 27 30
13 22 32 38 38 28 25 31 34 39 42 32 29 34 34 31 24 16 13 9 9 10 11 11 11 11 12 11 10 8 9 10 11 12 12 11 12 11 11 13 12 13 14 17 18 15 17 17 10 8 9 9 10 9 7 8 12 12 11 13 14 12 16 23 26 23 24 31 28 24 24 22 24 28 20 15 16 12 13 14 14 17 18 21 26 28 31 34
26 33 38 38 32 29 31 29 27 34 36 30 33 35 27 21 17 12 9 8 9 10 11 14 12 11 13 12 10 10 9 10 10 11 12 11 10 10 9 10 12 12 12 13 15 15 16 17 12 9 11 9 8 8 7 7 9 10 12 12 9 10 14 19 24 25 28 33 28 23 25 21 23 28 23 17 16 15 14 14 15 20 23 27 31 34 36 39
44 39 30 24 20 24 28 24 23 28 31 31 35 33 24 18 15 10 8 8 9 10 11 13 11 10 12 12 11 9 9 12 11 10 11 10 10 11 9 11 12 11 11 11 15 14 14 19 15 9 11 9 6 9 11 10 8 8 9 8 9 16 18 19 24 27 30 33 28 24 21 17 18 22 20 17 17 16 13 15 19 21 25 31 33 35 38 41
52 42 28 19 16 22 26 26 26 27 30 33 33 29 22 17 14 9 8 9 10 10 10 10 9 9 9 11 12 10 9 12 11 11 10 9 13 15 10 10 12 12 11 11 13 14 13 20 21 13 9 8 6 11 15 14 10 7 8 7 8 12 15 18 21 22 27 31 32 32 26 24 26 25 21 19 22 24 18 16 21 22 25 32 33 35 38 40
49 41 30 19 16 24 29 28 26 25 30 32 28 24 18 14 12 7 7 11 12 11 10 9 9 10 10 9 10 11 10 10 10 11 10 8 15 19 12 9 11 12 12 11 11 13 12 19 24 16 10 10 10 12 13 14 12 11 11 12 14 16 13 16 16 15 21 26 30 32 29 31 35 29 24 23 28 36 29 20 23 25 27 31 33 36 38 39
39 34 30 24 24 28 31 28 25 23 26 27 24 20 16 14 12 9 9 12 13 11 9 9 10 11 12 12 12 11 10 10 9 10 11 8 11 16 12 10 12 10 12 12 12 15 16 18 23 19 14 13 12 10 9 10 12 13 14 17 24 26 22 24 25 20 21 26 33 35 31 34 38 30 24 23 24 29 29 24 25 27 30 34 35 37 38 37
41 30 26 29 31 29 29 26 22 22 24 24 21 17 15 15 13 11 12 12 12 12 9 8 9 11 13 12 12 12 11 12 11 9 11 9 9 13 12 10 11 10 13 14 12 18 21 19 22 22 17 14 12 8 8 9 9 12 14 15 18 20 20 26 30 26 24 26 30 33 33 40 43 31 24 24 21 23 29 30 27 28 33 36 35 35 36 36
41 29 25 29 28 24 27 26 21 21 22 20 17 14 12 13 13 13 13 11 10 11 10 10 10 11 13 12 12 12 12 13 13 10 11 10 10 14 13 11 12 10 11 13 13 20 22 18 20 22 16 12 10 7 6 6 8 13 14 12 13 14 15 19 20 20 23 24 24 28 33 41 41 28 23 27 26 27 34 33 28 30 35 34 33 34 34 34
39 31 23 24 23 20 25 26 21 18 18 17 15 13 11 10 12 14 13 11 10 10 12 12 12 13 14 13 13 13 14 17 16 13 12 11 12 15 12 12 13 10 12 18 20 23 24 21 20 23 22 20 16 12 9 7 8 12 13 13 14 13 13 17 17 19 25 25 25 29 32 35 34 24 20 23 24 25 27 26 25 30 33 31 32 33 33 34
45 36 22 19 19 18 21 20 17 17 18 20 18 17 16 13 12 13 12 12 10 10 14 15 14 14 13 13 15 14 14 17 18 15 13 12 14 14 13 13 13 12 19 26 23 20 23 24 24 27 30 29 24 19 15 13 13 14 14 15 15 14 16 18 19 25 31 28 25 28 29 30 30 23 20 21 20 19 19 19 20 25 29 30 32 34 34 34
44 36 26 22 18 17 19 14 13 18 21 23 23 22 22 20 15 12 13 16 13 10 13 15 13 13 13 15 18 17 13 13 15 14 13 13 12 12 13 13 11 18 28 29 22 18 22 25 23 25 27 24 21 17 14 14 16 17 16 14 14 15 16 17 21 27 30 28 28 26 25 27 25 19 21 25 22 21 21 21 22 25 27 29 32 33 33 33
38 33 31 34 30 23 21 17 15 19 19 22 24 22 24 24 19 15 16 17 14 10 13 16 13 14 17 18 21 22 18 15 15 15 14 12 10 11 14 12 14 26 31 23 17 19 23 25 24 24 23 19 17 16 13 14 17 18 18 17 15 15 16 21 26 27 24 28 31 26 24 30 27 20 22 24 22 22 22 23 29 32 28 26 28 29 27 29
34 34 29 36 39 32 28 26 24 22 21 24 26 25 26 26 24 23 19 16 15 14 17 20 17 14 16 16 19 22 20 19 22 22 19 14 12 15 17 13 16 26 25 17 16 19 24 28 26 24 24 20 17 17 16 16 17 17 19 20 19 17 19 24 26 24 24 30 31 25 26 31 27 22 22 22 20 20 21 22 26 28 24 22 26 26 25 25
41 42 33 37 46 39 31 29 28 25 25 26 27 28 30 31 29 25 20 19 23 22 21 25 23 16 15 14 14 22 30 36 40 40 36 30 25 24 25 22 19 19 18 18 19 21 26 30 27 26 28 26 22 20 18 17 19 18 19 20 20 19 20 22 23 22 25 29 27 25 29 30 23 20 22 22 21 20 20 21 21 20 20 21 23 25 26 24
46 49 45 47 51 37 25 27 28 25 25 27 29 29 28 30 31 26 19 21 29 30 27 29 28 24 23 18 16 26 38 45 48 46 44 43 38 32 31 31 26 20 19 20 21 24 30 31 28 31 37 34 27 23 21 20 21 21 22 22 21 23 23 24 25 25 28 30 27 28 34 32 24 20 19 20 22 20 20 20 20 20 19 20 23 24 25 24
43 46 47 52 53 36 22 24 25 23 29 35 34 31 29 28 26 23 22 20 23 28 28 29 32 31 28 27 28 33 36 36 37 36 33 34 34 31 29 27 25 24 24 23 24 28 32 33 31 35 44 41 30 26 25 23 24 27 31 30 29 30 29 27 27 27 29 33 32 34 38 33 23 20 20 20 20 19 19 19 20 22 21 20 22 22 22 23
43 46 46 48 50 37 21 20 24 30 40 40 33 30 29 26 21 23 29 24 18 21 23 25 32 32 31 38 41 36 30 29 29 26 23 23 23 22 22 21 19 21 24 25 27 29 31 35 35 39 47 44 33 28 28 30 37 39 34 30 30 29 27 27 27 26 25 29 32 34 32 26 21 22 22 22 23 22 21 21 21 24 27 24 21 20 20 20
Wind_Speed
11 11 10 10 10 10 9 10 10 10 10 10 10 10 10 10 10 10 10 11 11 12 11 12 13 13 13 13 14 15 17 17 17 15 16 17 16 11 6 8 10 11 11 11 13 13 13 13 13 14 12 9 7 7 10 10 8 6 6 7 8 8 10 9 11 11 9 7 4 7 6 2 4 5 3 1 6 8 9 13 4 16 14 15 17 21 20 21
11 11 11 11 10 10 10 10 10 10 10 10 10 10 10 10 10 10 10 11 12 12 11 12 12 12 13 13 14 14 16 17 17 18 20 19 15 16 14 11 10 10 12 13 15 14 12 11 12 12 10 8 7 8 9 8 8 7 6 7 8 9 10 12 15 12 6 8 6 8 4 2 2 4 4 2 9 9 9 12 7 19 17 19 20 19 18 18
12 11 11 11 11 11 10 10 10 10 10 10 10 10 10 10 10 10 10 10 11 11 11 11 11 12 12 12 13 12 14 17 15 15 18 18 16 15 14 14 12 11 15 17 16 14 12 12 11 11 9 8 7 9 10 7 7 8 7 7 9 11 13 15 18 10 7 9 10 10 7 3 4 5 3 4 9 11 10 9 8 17 19 18 18 17 18 16
12 11 11 11 10 10 10 10 10 10 10 10 10 10 10 10 10 10 10 10 10 11 11 11 11 11 11 12 12 11 12 13 7 2 7 13 14 12 13 14 12 13 18 18 15 14 14 13 10 10 9 8 8 10 10 7 6 7 8 9 11 14 13 12 13 9 6 7 8 11 10 6 9 5 1 7 8 10 9 9 11 15 24 20 19 17 17 14
12 11 11 11 11 10 10 10 10 10 10 10 10 10 10 10 10 10 10 10 10 11 11 11 11 11 11 11 10 9 10 5 2 7 8 9 7 8 11 12 12 14 17 17 16 14 13 11 9 9 8 8 9 9 10 10 9 7 9 12 12 14 13 10 9 6 4 5 6 9 11 9 10 6 4 11 8 7 7 6 11 9 25 21 21 18 17 14
13 12 11 11 11 11 10 11 10 10 10 10 9 9 9 10 10 10 10 10 10 10 10 10 10 10 10 10 9 8 8 2 3 5 6 5 4 6 9 11 12 14 16 16 16 13 9 9 9 8 7 8 11 11 10 11 11 9 10 12 11 13 13 11 8 5 3 4 6 9 11 10 9 7 8 12 8 7 6 9 15 11 19 17 19 17 17 15
13 12 11 11 11 10 10 10 11 10 10 10 10 10 10 9 10 10 10 10 9 9 9 9 9 10 10 10 8 6 8 7 1 3 3 4 2 4 9 11 12 13 14 15 15 11 8 10 10 8 8 9 11 13 12 12 14 11 9 11 12 13 12 11 9 7 6 6 8 9 11 11 7 9 9 8 7 6 0 15 18 14 14 13 14 13 16 15
13 12 11 11 11 10 10 10 10 10 10 11 10 10 10 10 10 10 10 9 9 8 8 8 8 8 9 10 7 6 9 6 3 3 2 5 4 6 11 11 12 13 13 15 14 10 8 10 10 9 9 10 10 11 11 11 12 10 9 12 13 13 9 9 9 8 9 8 8 9 12 11 9 11 9 8 7 4 6 18 19 13 13 11 11 11 12 13
13 12 11 11 11 11 10 10 10 11 11 11 11 10 10 10 10 10 9 9 8 8 7 6 7 6 7 7 7 6 3 3 6 4 5 7 8 10 12 11 13 13 13 15 14 11 8 8 11 10 9 10 10 10 10 8 6 7 11 13 13 14 10 8 10 11 11 8 7 11 13 11 13 12 9 12 8 5 8 16 18 13 12 9 9 9 8 12
13 12 11 11 11 11 10 10 11 12 12 12 11 11 11 10 10 9 9 8 7 7 6 6 5 6 7 7 8 5 2 6 7 7 8 9 10 11 12 12 13 13 14 12 11 11 9 8 8 7 7 10 10 9 9 8 6 5 9 12 13 13 10 9 11 12 10 8 10 13 12 12 13 9 7 10 5 7 7 13 15 11 10 7 7 8 7 10
13 12 11 10 11 11 11 11 11 12 13 13 12 12 12 11 10 9 9 8 7 6 5 6 5 5 8 8 7 4 2 3 5 9 9 9 11 11 12 12 12 13 13 10 9 11 11 9 8 5 4 5 8 9 9 10 10 7 8 9 12 12 12 12 13 11 8 8 12 11 12 14 10 8 8 4 9 6 7 14 13 9 9 7 7 7 7 7
13 12 11 10 11 11 11 11 12 13 13 13 13 13 13 12 11 10 8 7 7 5 5 5 4 4 8 7 9 7 1 1 4 7 9 10 10 12 11 10 12 12 12 8 8 11 10 8 8 8 6 4 8 7 5 10 9 9 8 9 13 13 13 15 14 12 10 9 11 10 10 12 8 10 9 6 8 6 9 16 12 9 8 8 8 5 4 4
12 12 11 10 10 11 11 12 12 13 13 13 14 14 14 13 11 9 8 7 6 5 5 5 3 5 7 6 7 7 2 2 4 5 9 10 11 11 9 9 9 11 12 9 8 8 8 8 8 11 9 7 9 4 6 7 7 8 10 9 11 10 13 15 13 12 12 10 10 9 7 8 11 13 9 8 7 8 10 14 11 11 8 7 7 3 6 6
12 11 10 10 10 10 11 12 13 13 14 13 14 14 14 13 11 9 8 7 6 5 5 4 3 4 6 7 5 6 4 2 5 7 9 11 12 11 9 9 9 10 10 10 9 4 5 8 9 10 8 9 10 7 7 7 7 8 10 9 7 8 10 11 11 10 10 6 9 8 7 6 10 12 11 8 7 8 11 14 11 10 9 6 5 5 7 4
12 11 10 10 10 10 11 12 13 13 14 14 14 14 13 13 11 8 8 7 5 3 4 5 5 4 5 9 6 6 6 6 7 9 10 11 12 9 8 10 10 10 8 8 8 4 6 8 8 8 8 10 9 8 8 7 7 7 8 7 8 9 5 9 12 10 7 7 10 9 7 6 11 9 12 7 6 6 12 17 11 11 12 10 5 4 6 3
12 11 9 9 9 10 11 12 12 13 14 14 14 15 13 12 10 8 8 6 4 3 3 5 8 10 6 4 5 8 8 10 10 10 10 12 11 9 9 10 10 9 7 8 7 5 7 8 8 8 9 9 9 8 7 6 7 7 7 6 8 10 4 8 10 10 8 8 12 11 8 8 6 6 10 6 6 7 13 16 13 12 12 11 8 5 6 4
12 10 9 9 9 9 10 11 12 13 13 14 15 15 11 9 9 8 7 5 3 4 6 9 8 8 7 5 2 8 10 11 10 11 11 11 11 8 10 9 8 8 7 8 8 6 7 7 6 7 7 7 6 7 6 7 7 7 7 6 8 10 4 6 8 9 7 5 8 11 10 9 4 10 5 6 6 8 13 16 13 13 12 11 10 8 8 7
12 11 9 8 8 9 10 11 12 12 13 14 14 12 9 8 8 7 5 2 1 4 9 12 9 5 7 10 10 10 11 10 9 10 10 10 10 7 8 9 7 8 8 7 8 8 6 6 6 6 6 6 7 7 7 7 6 2 4 6 6 8 7 4 4 5 7 6 8 9 9 11 6 9 8 7 6 9 9 14 14 13 12 11 9 9 8 10
13 11 9 8 8 8 9 11 12 11 13 13 10 9 8 7 7 6 7 6 4 5 5 6 10 5 2 9 12 8 9 8 9 10 11 10 9 8 9 10 7 8 8 5 8 9 6 5 6 6 6 6 6 5 3 6 8 9 10 9 6 5 7 6 4 6 5 6 8 8 10 12 8 9 9 7 6 6 5 7 14 13 12 11 10 10 9 10
12 11 9 8 8 8 9 10 11 11 13 11 7 7 7 4 2 3 7 9 9 10 10 4 14 13 6 7 9 6 8 6 8 10 11 11 9 9 10 9 8 8 7 7 7 7 6 6 6 8 6 1 5 6 5 7 10 11 11 10 6 4 7 6 7 8 3 5 5 6 10 10 8 9 6 6 7 7 5 4 9 13 13 13 12 13 12 10
13 10 9 8 8 9 9 10 11 11 12 9 5 6 6 4 3 2 1 8 14 16 17 12 13 16 11 2 8 8 7 7 9 10 11 12 11 9 8 8 9 7 7 10 7 4 4 6 7 11 5 4 6 8 7 7 9 9 10 8 6 6 6 2 6 5 4 2 6 7 10 10 9 8 4 3 7 6 6 7 5 11 13 13 13 14 13 11
15 10 9 8 8 9 9 10 11 11 12 8 5 9 8 7 6 6 7 8 11 15 18 15 14 13 10 6 5 6 7 9 10 11 12 12 11 9 8 9 9 8 8 9 6 2 5 7 11 13 4 4 2 6 8 8 9 8 8 7 6 8 7 4 8 2 2 2 5 7 9 10 6 5 5 5 8 4 4 7 7 8 10 11 15 13 12 12
17 10 9 8 8 9 9 11 11 11 12 9 9 12 9 8 8 9 8 7 9 12 14 14 14 12 10 12 9 8 10 10 11 12 14 12 11 10 8 9 9 8 9 9 7 6 6 5 5 3 2 2 3 5 7 7 7 7 7 7 7 8 9 2 6 2 3 1 4 9 8 10 7 4 7 9 8 5 5 9 9 8 7 8 15 13 11 12
20 13 9 8 8 8 9 11 12 13 14 14 16 15 8 8 9 11 7 7 8 9 12 12 12 12 12 11 10 12 12 10 10 12 17 12 10 10 9 10 10 8 9 10 10 9 10 4 4 4 3 1 3 4 6 6 6 8 8 9 10 9 10 6 2 4 4 4 4 9 8 6 7 6 7 8 7 7 9 10 9 8 8 6 13 15 12 12
23 15 9 8 8 8 10 11 11 15 15 15 18 13 7 8 7 9 7 6 6 6 9 10 9 10 14 11 8 11 11 9 11 9 17 12 11 10 9 8 8 9 10 10 10 10 7 3 2 0 2 3 5 6 8 7 6 8 9 10 11 12 11 8 5 2 2 5 6 7 7 5 7 8 10 9 8 9 8 8 8 8 8 6 10 16 12 11
24 18 10 8 7 8 9 6 9 14 13 12 8 4 6 8 7 8 6 5 4 5 7 8 7 7 10 10 8 9 10 9 9 8 16 12 13 9 7 6 6 9 9 6 8 7 4 3 1 4 5 5 7 8 9 8 7 6 5 7 10 10 10 9 10 7 4 6 3 6 6 5 5 8 9 8 9 10 7 8 8 7 7 6 8 14 11 9
24 21 12 8 8 7 5 6 13 15 8 3 4 5 7 7 7 7 4 4 4 6 7 7 6 6 8 9 10 9 6 4 6 8 11 10 10 7 7 7 5 6 6 5 4 3 2 3 3 4 6 6 7 8 8 9 8 3 3 8 10 9 9 10 10 8 6 6 4 5 7 6 6 8 7 5 6 9 9 7 8 8 10 10 9 12 14 13
23 22 14 8 8 7 8 11 15 14 10 9 8 8 8 8 7 5 4 4 2 5 6 5 3 4 8 9 12 12 4 4 7 7 8 10 9 6 8 10 10 7 7 7 5 1 2 3 3 4 7 6 7 9 8 9 8 4 2 5 8 9 10 9 8 7 6 6 6 7 8 7 5 7 6 6 6 6 8 7 8 8 8 8 9 9 11 12
22 21 16 8 9 10 13 14 12 12 12 11 9 9 9 7 6 3 4 4 2 2 2 4 4 5 9 9 11 14 8 6 6 6 8 10 10 8 8 8 11 11 9 8 7 3 2 5 5 6 7 6 8 11 8 7 7 4 4 6 8 10 10 7 7 7 6 6 7 7 8 7 5 6 5 5 7 8 7 8 9 7 5 4 3 2 5 6
20 20 17 10 8 9 11 13 12 12 11 10 10 11 9 7 4 4 5 3 3 4 4 4 6 9 11 10 10 13 11 7 7 7 8 8 10 10 9 9 9 10 8 7 8 9 5 5 4 6 8 7 8 10 6 5 6 4 5 8 9 9 7 6 6 6 6 6 8 10 11 9 6 4 2 0 5 5 2 4 4 3 2 4 5 3 3 4
19 18 18 13 10 8 7 7 8 9 8 10 12 11 7 4 4 5 5 2 4 5 7 5 8 11 13 13 10 10 11 10 8 8 7 6 9 9 7 8 6 6 7 5 7 11 8 7 6 5 8 9 10 9 5 5 7 7 6 6 7 6 5 6 5 5 6 6 7 8 11 11 8 3 2 2 3 5 2 2 2 3 2 6 5 2 2 2
18 17 18 15 13 13 11 9 9 11 9 11 11 8 5 4 5 6 5 3 2 4 6 7 8 9 13 15 10 9 10 9 9 10 8 7 7 7 7 6 5 5 6 5 6 7 8 8 7 7 8 7 8 7 6 8 8 7 7 5 5 4 4 5 5 4 5 6 4 4 8 8 6 4 4 6 4 6 7 5 4 4 4 6 3 2 3 2
18 16 16 14 14 16 17 13 11 11 10 11 9 5 5 5 6 7 7 5 2 3 3 6 7 9 11 12 9 10 10 8 8 10 10 8 6 7 9 8 7 6 4 3 5 5 5 7 9 10 6 8 7 6 6 6 5 6 6 4 4 4 5 6 4 4 4 6 5 1 3 5 3 4 5 7 6 5 8 9 6 5 6 4 2 4 4 4
19 16 15 14 14 18 18 14 11 10 10 10 7 5 6 7 6 8 9 7 5 4 4 7 7 9 10 9 7 8 9 8 9 9 9 8 7 6 8 9 8 7 4 3 4 5 6 5 6 8 4 5 6 7 7 6 4 6 6 5 5 5 5 5 3 4 4 4 5 2 1 3 2 4 4 6 8 5 6 8 7 5 5 4 2 5 7 8
19 15 15 14 15 17 18 16 12 9 8 7 6 6 8 7 6 8 8 6 6 5 7 9 8 8 9 8 8 8 7 6 8 9 8 7 7 6 6 7 8 7 5 4 3 4 7 6 6 8 5 3 5 8 8 7 6 5 4 6 5 4 5 5 4 6 4 4 4 2 2 2 2 2 1 5 6 5 6 7 7 7 6 6 4 7 9 8
18 13 11 11 14 15 14 14 12 9 7 6 6 7 7 7 7 8 5 5 6 4 6 9 8 8 8 6 8 8 6 6 7 7 7 8 8 8 8 7 6 6 5 5 4 4 5 6 5 5 6 6 8 9 7 4 3 3 4 5 3 3 5 5 5 5 4 5 5 4 5 3 3 4 4 6 7 7 8 8 9 8 8 8 6 7 9 8
17 13 10 12 15 14 13 11 10 9 7 6 7 7 7 8 10 10 6 5 6 5 7 7 5 7 8 6 7 8 8 7 7 7 6 7 7 7 8 6 4 5 5 4 4 3 4 5 6 4 6 8 9 8 9 8 7 5 4 3 2 4 6 4 4 4 4 6 4 4 7 6 3 3 6 9 9 9 9 9 10 10 9 9 8 9 10 10
15 12 11 16 18 12 12 9 8 9 6 6 9 9 10 10 11 13 10 6 6 6 8 8 4 5 8 7 6 7 8 6 6 7 6 6 4 2 5 5 4 5 6 6 3 2 3 5 7 7 9 10 8 5 7 10 11 10 8 5 3 4 4 3 4 4 5 6 4 5 8 7 4 2 6 11 9 8 10 10 10 11 10 9 9 9 10 10
12 8 8 15 15 11 10 8 7 7 6 7 9 7 9 11 13 16 10 5 7 8 7 8 6 6 8 8 6 6 8 7 6 7 6 5 3 0 3 3 4 5 4 6 5 3 3 4 5 6 10 10 5 4 6 7 9 11 10 7 5 4 4 4 4 3 4 6 4 6 7 4 2 4 1 6 3 3 6 8 9 9 10 9 8 8 8 8
8 6 4 5 10 12 9 7 7 7 7 8 8 7 9 11 14 15 7 2 6 7 7 8 8 8 7 8 7 6 8 8 8 7 6 3 3 4 6 5 5 6 4 3 6 4 3 3 4 6 9 9 4 4 6 5 6 7 6 6 5 4 4 4 5 5 5 6 5 5 6 1 3 3 1 5 3 3 6 3 7 8 10 9 8 8 7 7
6 6 2 5 9 11 8 5 6 6 7 8 9 10 11 8 11 12 4 2 6 7 8 10 9 8 8 7 7 6 7 8 8 8 5 5 4 4 6 5 5 5 3 3 4 2 2 3 4 6 6 7 7 7 7 5 6 6 4 4 4 4 4 5 6 4 3 4 3 5 6 0 2 3 1 4 6 4 4 2 6 10 10 9 9 8 7 7
6 5 4 9 8 10 8 5 6 6 7 8 9 12 9 4 7 11 8 6 7 7 8 10 9 8 8 8 7 7 8 7 8 8 6 8 4 3 2 2 1 1 1 4 3 4 3 3 5 7 6 8 11 12 11 8 7 9 7 5 6 6 5 5 5 3 3 3 2 5 6 1 2 5 4 4 3 6 1 3 6 11 10 9 9 8 8 7
5 4 5 12 10 9 7 6 6 6 7 9 11 14 12 7 7 10 11 10 9 7 7 8 7 6 6 7 7 8 8 6 9 9 7 8 1 8 6 3 2 0 0 4 4 4 3 3 5 7 7 9 12 14 14 11 8 7 7 7 8 8 8 7 7 5 4 6 5 5 5 1 2 4 4 5 4 5 3 4 8 9 8 9 9 9 8 7
5 6 3 9 11 9 7 6 7 7 8 11 12 13 13 10 9 9 10 10 8 7 7 7 6 6 6 7 8 9 8 6 7 7 8 9 0 6 4 5 2 3 1 2 2 3 2 3 4 6 6 7 8 8 10 9 7 5 4 6 7 9 11 9 6 5 5 7 7 7 5 1 2 2 2 3 5 7 8 9 11 8 7 8 8 8 8 7
6 6 4 6 10 7 7 6 7 7 7 10 10 10 11 10 8 8 9 10 9 7 7 6 6 8 8 8 8 8 8 7 6 6 8 8 2 4 2 2 1 2 5 8 5 2 3 3 4 5 5 5 6 4 2 3 3 3 4 7 7 10 12 8 3 4 5 6 7 7 5 2 5 3 1 2 3 5 5 5 8 9 8 8 7 7 7 7
5 3 4 3 4 4 6 7 8 8 7 9 8 7 9 9 8 6 5 8 11 9 6 6 7 9 8 7 8 9 8 8 8 7 7 8 6 4 3 3 2 5 9 9 5 2 4 4 6 8 8 8 9 10 10 8 7 7 8 11 10 10 11 6 3 4 5 6 6 7 6 4 3 3 1 1 4 4 4 5 5 6 6 7 6 6 6 6
4 3 3 4 3 4 4 4 5 6 5 5 5 5 7 8 9 5 4 4 9 8 5 7 9 8 7 7 7 8 9 10 10 10 9 9 8 2 5 2 2 7 8 4 1 1 3 5 8 11 12 13 14 15 16 14 12 12 13 14 14 12 10 6 5 7 7 6 6 6 7 9 9 7 4 2 4 4 5 4 3 4 5 6 5 4 6 6
4 3 4 6 5 5 3 5 6 6 7 5 4 4 6 7 8 6 4 3 7 6 4 6 9 9 9 9 8 7 9 10 9 9 10 9 8 1 4 3 2 7 4 4 3 3 4 6 8 11 13 14 15 16 16 14 13 14 14 15 15 14 13 10 9 10 10 9 8 8 10 11 10 8 9 9 6 4 5 3 2 3 5 6 6 6 5 6
6 4 6 8 7 5 5 8 8 8 7 5 3 3 5 6 7 7 5 3 5 7 6 6 8 10 11 11 9 6 4 5 5 6 8 8 7 5 3 3 3 4 4 5 4 3 4 4 6 9 11 13 14 14 15 14 14 14 15 16 15 14 15 14 12 12 12 12 13 14 14 13 11 8 8 10 9 7 7 5 3 5 7 6 8 9 8 7
6 4 6 8 7 6 5 6 6 6 4 2 2 3 4 5 5 6 6 3 3 6 8 8 8 11 13 12 8 3 5 6 5 6 7 8 6 5 5 4 4 4 4 5 3 1 1 2 4 6 8 10 12 13 13 13 14 14 14 14 15 15 15 14 12 10 10 11 13 14 13 10 9 9 9 9 8 8 9 9 8 7 8 9 9 10 9 8
11 8 7 7 6 6 5 4 4 5 3 3 3 4 4 5 5 4 5 5 3 4 7 8 9 11 12 10 5 6 8 6 6 7 7 7 6 5 5 4 5 5 5 6 5 2 3 3 5 5 7 8 9 11 12 12 13 14 12 12 13 14 12 11 10 9 8 9 10 11 9 7 6 9 10 10 11 10 10 11 8 4 7 11 10 10 10 9
15 11 9 7 6 7 6 4 3 2 4 5 5 6 6 6 6 6 5 5 5 5 4 6 9 10 7 7 10 10 8 7 7 7 7 8 8 8 6 6 8 8 5 5 4 2 3 4 4 5 6 7 9 11 10 9 10 10 8 8 10 13 12 11 11 12 12 11 8 7 8 8 8 9 9 9 9 9 8 9 6 6 9 10 7 8 10 9
Wind_Direction
329 328 327 326 325 323 323 322 321 320 319 319 317 315 314 313 310 311 311 308 307 304 303 307 306 307 308 311 311 311 320 313 302 286 252 251 251 249 269 218 219 246 237 219 230 238 221 220 231 231 233 233 232 238 242 237 232 239 233 241 251 251 254 257 256 257 272 254 142 71 49 6 298 299 310 4 265 254 263 270 98 88 92 96 110 130 143 150
327 326 325 325 324 322 321 319 318 317 317 317 314 313 311 308 309 308 307 306 304 303 302 302 303 305 306 310 312 317 325 309 288 277 258 252 250 249 262 250 242 244 225 221 227 227 221 218 219 222 230 234 225 225 233 225 214 229 243 239 241 250 257 264 259 259 312 306 322 14 13 261 296 305 316 314 276 262 239 243 122 98 103 104 112 126 137 139
326 325 324 324 323 321 319 317 317 316 315 316 315 313 312 309 308 305 303 304 303 304 300 300 304 303 307 311 316 331 326 304 282 269 251 237 237 244 253 251 247 233 215 216 224 225 231 232 223 219 224 236 232 224 224 208 201 220 240 248 245 249 255 265 269 284 353 331 313 311 304 310 301 292 291 295 286 276 259 235 167 124 121 121 123 132 138 129
324 322 322 321 321 321 319 318 316 316 316 315 315 314 313 311 308 305 302 302 301 302 301 302 305 303 310 312 321 344 320 294 279 236 189 204 225 243 243 238 232 220 214 222 240 247 247 249 249 235 226 237 236 230 229 210 207 218 224 243 252 256 261 275 293 324 344 318 309 302 310 305 280 281 276 280 274 270 263 248 238 152 133 134 132 138 140 129
322 321 322 320 320 319 318 317 314 313 313 312 315 316 314 313 310 308 304 302 298 297 301 302 303 305 309 314 331 334 304 291 95 104 132 182 218 242 232 221 216 212 214 227 248 257 252 252 255 245 234 245 241 232 226 217 223 230 234 243 256 272 283 298 307 338 347 315 308 295 293 280 276 282 269 268 257 271 268 286 298 152 137 137 138 143 140 140
323 322 321 321 320 318 318 315 314 312 312 312 313 313 312 311 309 310 305 301 298 296 301 302 304 308 314 324 329 306 282 302 73 111 145 186 222 238 214 200 204 208 217 232 247 247 239 239 239 236 232 240 246 244 228 217 227 238 248 250 258 270 276 284 291 321 330 278 271 273 273 267 273 275 269 268 256 272 290 31 32 101 132 131 135 143 141 148
323 321 319 322 320 317 318 315 315 313 313 313 312 311 307 307 306 307 305 302 302 300 301 303 305 311 330 333 308 259 255 276 342 102 154 178 191 209 185 183 196 207 222 240 248 236 223 230 229 230 232 235 242 247 237 225 231 234 248 259 259 258 262 273 277 290 281 255 256 262 268 264 266 269 261 261 256 257 81 80 78 98 113 118 127 138 140 145
321 319 318 319 317 316 316 315 315 312 313 312 312 312 308 307 305 304 304 303 304 303 301 303 309 324 348 339 299 246 245 256 97 101 171 156 148 161 166 178 196 207 224 239 244 233 225 231 231 232 231 236 240 247 246 236 237 235 243 261 267 265 263 268 271 277 269 257 257 255 261 260 254 263 263 266 256 212 122 106 112 113 109 118 119 130 138 135
318 315 315 315 314 314 313 313 314 312 313 312 312 313 310 309 305 304 302 301 303 305 309 310 318 342 348 326 290 280 264 121 108 144 159 143 147 156 167 180 193 209 228 237 239 236 233 233 232 235 243 256 264 269 258 238 235 242 247 251 257 261 255 253 258 254 249 242 245 250 251 248 247 251 254 257 245 146 124 115 119 120 115 121 123 133 138 128
314 311 312 310 310 310 309 309 311 313 312 311 313 310 311 312 307 306 301 299 303 305 318 319 334 350 323 289 271 281 90 109 123 148 150 149 154 164 184 194 195 212 234 235 236 240 241 250 255 260 271 271 275 277 261 242 241 258 265 256 254 266 264 259 257 249 245 236 238 246 244 242 239 232 242 240 183 125 146 123 114 117 116 132 143 143 151 143
313 309 309 306 306 306 303 303 306 309 310 311 313 312 315 316 311 308 302 301 300 304 320 318 340 340 300 281 269 278 96 133 144 145 158 161 164 179 197 210 208 215 235 233 233 245 245 266 297 288 268 286 278 261 246 246 255 270 280 271 263 267 266 258 258 255 246 240 239 240 248 249 227 208 239 201 130 152 163 122 116 127 129 149 158 159 171 159
312 309 308 302 301 302 298 299 302 303 307 310 311 312 314 316 314 306 301 303 299 304 316 312 351 333 294 277 253 256 319 180 165 155 175 176 182 196 202 219 221 223 240 234 224 242 251 280 303 267 255 314 281 262 252 243 249 268 267 267 262 255 250 241 240 242 233 237 230 222 246 247 226 226 226 144 131 186 150 121 129 143 140 155 161 169 146 84
315 310 304 298 297 299 297 296 298 301 306 310 311 311 313 315 312 302 296 295 293 303 310 313 346 299 284 283 241 224 249 185 166 172 186 189 199 208 221 234 226 234 254 262 247 233 241 269 279 267 275 287 268 303 333 263 244 264 253 253 259 255 245 225 217 228 229 230 202 197 245 225 218 226 191 136 162 194 150 131 142 145 149 162 149 113 69 63
318 309 301 295 294 295 297 297 300 303 305 310 311 308 310 311 307 299 287 284 290 297 301 303 310 283 263 270 245 188 205 207 175 191 190 194 206 208 222 228 226 239 250 270 282 254 234 261 268 270 275 268 271 305 301 254 240 254 247 242 244 258 249 200 186 212 224 200 162 190 253 233 224 205 151 139 189 191 149 140 152 149 147 146 122 93 87 82
322 314 303 294 293 294 296 299 300 302 304 308 307 305 307 304 303 299 281 279 288 285 302 294 254 244 264 260 231 177 194 206 197 201 190 196 207 200 204 208 215 232 232 250 278 269 240 255 258 257 257 247 255 278 266 236 227 234 243 237 229 250 234 158 170 199 212 165 163 213 251 247 242 189 128 131 201 190 141 139 156 152 138 132 120 110 109 103
327 319 309 297 295 295 294 296 296 297 301 304 303 303 303 301 304 302 283 270 272 275 298 280 224 213 271 294 165 163 193 211 206 197 193 206 207 185 183 195 204 216 220 234 254 255 237 242 250 257 269 253 234 245 254 246 227 213 237 246 241 245 181 147 176 191 217 190 178 213 244 254 239 137 113 136 215 199 141 143 163 152 137 135 137 141 132 138
332 324 317 308 300 296 294 292 292 296 300 302 302 303 305 303 302 299 284 260 268 268 244 267 255 217 255 302 173 186 204 208 196 186 191 213 223 190 172 194 207 204 212 224 233 239 229 230 246 250 255 257 250 251 250 252 237 203 220 237 250 256 206 159 172 182 220 219 195 207 233 257 112 105 137 164 221 224 151 150 164 146 138 142 144 153 151 149
336 329 322 314 306 299 295 292 294 298 299 299 301 307 308 298 300 302 281 229 242 260 245 260 272 256 250 248 236 213 197 189 182 191 195 206 235 224 186 206 207 198 217 222 219 225 221 217 237 249 239 231 236 243 244 255 266 291 283 255 242 259 253 215 160 166 194 203 223 214 227 247 158 143 199 177 210 242 178 154 154 143 144 151 148 153 155 156
338 333 325 317 309 300 296 295 296 298 298 298 306 321 315 293 296 283 238 210 188 220 243 213 205 242 279 207 218 201 165 169 180 196 200 196 223 228 210 220 219 212 225 218 203 208 215 221 233 244 236 232 236 239 275 316 332 340 323 290 250 248 261 246 134 135 188 216 228 217 229 239 203 188 198 180 193 229 234 164 142 142 151 157 159 157 160 167
340 333 328 318 311 305 300 297 296 298 298 298 309 310 296 283 274 227 206 215 222 237 272 236 192 225 254 179 177 146 134 173 199 201 203 198 210 220 213 223 231 224 234 240 213 193 218 240 241 246 239 305 348 354 359 340 332 322 312 299 273 259 257 232 146 137 190 279 265 242 249 241 230 238 210 185 198 183 241 247 144 149 158 161 168 161 160 168
340 333 328 320 316 309 303 299 297 297 295 298 308 278 285 353 358 340 283 237 234 236 254 258 214 224 257 209 147 157 171 190 205 208 199 193 208 219 202 212 231 219 223 245 237 160 215 251 251 254 259 54 12 355 356 329 320 309 300 297 289 274 259 173 110 116 122 277 278 269 266 247 223 254 272 210 228 186 186 245 208 174 173 168 170 163 158 162
345 333 326 322 317 310 307 303 299 294 291 292 269 253 278 354 358 327 321 279 257 239 234 244 239 235 255 258 193 200 220 198 198 205 189 186 209 215 184 193 226 226 213 227 240 214 218 242 253 251 239 82 351 337 337 315 308 299 285 279 277 272 267 109 99 97 120 156 265 267 274 277 243 242 281 238 244 252 183 232 243 208 203 181 168 163 156 161
350 331 321 321 315 313 309 301 300 289 275 258 247 260 291 343 343 326 311 285 281 258 231 225 237 237 231 234 221 222 240 220 200 189 176 185 212 217 210 211 224 232 224 212 215 244 243 227 248 254 100 82 297 311 308 301 290 274 271 271 266 264 266 238 112 65 315 284 285 286 288 301 292 245 262 244 220 231 233 240 243 228 235 188 161 158 158 166
354 333 312 313 313 310 308 303 295 276 259 247 251 266 311 345 332 334 322 277 276 263 241 222 223 228 221 223 209 209 231 236 224 186 167 187 215 208 224 239 238 240 237 222 206 233 265 266 103 87 67 9 282 285 272 273 268 253 247 255 266 272 276 287 84 86 326 298 268 279 283 279 266 228 237 249 199 194 226 237 241 228 235 209 153 152 165 170
357 341 308 302 309 304 309 304 280 264 251 247 252 258 310 342 338 343 331 278 269 250 231 214 210 219 212 204 190 207 228 239 250 199 159 189 226 204 214 236 245 249 238 235 227 225 255 313 79 204 287 265 254 258 250 247 260 257 244 242 257 277 289 298 289 210 245 269 219 226 261 250 242 234 229 235 206 204 227 227 237 236 231 220 146 148 168 169
356 348 316 291 297 302 308 298 282 277 254 245 259 283 327 337 357 346 310 266 268 238 204 183 184 196 194 188 180 213 235 228 238 185 152 191 231 227 246 229 215 253 264 275 260 233 192 145 187 281 285 265 257 258 251 247 250 261 296 288 267 271 280 276 274 260 242 272 219 186 245 269 255 254 249 243 215 202 216 224 227 232 227 216 161 150 155 159
353 350 328 285 282 296 295 297 307 304 287 298 347 342 331 345 359 337 285 265 261 218 190 164 163 175 181 184 186 209 238 201 191 165 153 193 218 229 261 248 227 242 268 303 281 270 282 177 161 282 275 256 259 256 243 246 252 249 346 313 284 270 269 262 262 261 252 277 271 192 232 269 267 264 260 258 232 196 197 226 226 219 217 205 186 170 162 167
350 349 337 288 267 273 268 288 304 299 309 354 351 322 337 353 338 307 262 276 244 183 181 162 142 188 195 183 194 216 214 150 181 167 174 203 202 213 236 246 265 248 221 248 246 195 301 241 180 244 256 251 257 256 241 243 253 240 237 292 287 275 273 271 264 263 258 263 260 230 235 247 252 263 245 208 225 211 189 215 232 225 218 199 192 190 171 168
346 347 339 302 268 270 264 271 286 283 300 337 342 327 333 328 309 267 259 277 212 164 180 174 159 196 209 185 197 227 221 181 199 175 185 205 198 222 248 250 265 266 243 238 243 232 237 266 283 265 252 249 248 255 257 253 261 260 262 281 277 266 267 266 259 263 258 248 253 251 249 254 253 257 248 192 207 222 199 200 213 208 200 182 164 121 101 116
341 341 336 313 267 273 268 254 262 274 294 332 338 325 314 292 272 242 245 249 220 198 151 167 190 191 206 202 196 222 226 209 209 184 184 209 203 218 262 273 270 280 270 238 248 263 235 208 263 275 266 271 262 266 278 262 265 268 251 262 260 250 255 254 248 258 261 254 251 248 247 252 255 242 250 245 197 199 240 239 201 180 169 97 81 92 120 139
335 334 330 311 261 269 280 253 275 296 305 335 333 315 294 259 246 252 239 236 257 211 162 179 203 184 196 216 204 198 215 219 215 200 190 210 211 205 234 253 250 271 272 242 244 269 262 214 211 231 243 266 275 276 278 239 246 261 251 260 268 254 248 250 244 241 248 252 250 261 261 246 245 253 116 103 158 132 78 336 76 75 79 84 89 142 149 153
326 324 317 299 263 257 261 270 315 329 327 335 326 300 274 252 240 245 239 253 265 194 197 216 207 188 195 216 216 190 207 224 217 215 208 205 208 204 220 228 210 232 255 249 237 253 265 257 262 250 211 225 264 266 256 231 222 242 249 248 263 264 254 250 248 240 248 270 277 328 317 264 235 262 190 157 184 161 128 116 125 138 120 95 101 123 84 88
318 314 302 287 265 253 251 266 301 318 325 325 310 278 264 258 248 250 249 254 212 155 243 249 214 210 209 215 217 199 210 222 210 220 222 215 214 210 226 231 216 226 245 268 266 250 239 235 253 264 216 189 233 258 263 244 204 226 249 245 241 250 258 252 254 254 247 271 264 168 328 275 212 276 243 152 153 159 122 112 128 130 110 106 166 143 111 76
312 303 289 277 263 254 251 258 278 297 312 308 288 265 256 251 256 268 261 254 236 191 244 260 227 221 229 234 229 209 216 215 204 219 221 216 227 221 229 238 227 232 246 250 262 263 265 243 226 250 234 177 214 251 274 284 262 242 250 251 233 232 259 263 262 269 269 291 280 172 211 272 207 292 315 103 114 124 117 115 120 122 130 160 159 101 90 70
311 298 282 269 258 254 251 252 259 274 288 285 271 255 250 249 254 257 256 267 262 218 229 251 244 236 236 239 243 230 221 212 207 226 231 220 226 223 222 236 233 233 241 241 242 249 261 266 239 229 222 201 228 246 254 267 271 266 260 253 239 220 242 255 267 282 299 308 286 225 239 284 165 229 302 106 130 145 136 134 140 149 144 131 101 85 82 72
318 307 278 252 246 246 241 239 238 238 251 262 258 249 245 250 253 248 257 310 311 299 262 249 235 241 242 227 238 233 207 207 217 228 242 235 231 226 215 221 228 220 224 240 256 259 249 267 276 230 207 223 245 260 268 261 268 294 271 260 282 287 256 254 270 275 267 260 260 235 237 235 143 188 210 183 174 157 148 154 152 140 117 106 99 91 91 87
321 308 276 251 249 235 218 222 223 222 236 249 248 254 255 255 260 263 276 308 317 316 285 265 227 234 253 241 231 220 199 209 227 228 242 243 232 228 220 212 208 214 245 272 271 273 256 273 288 253 230 235 235 264 290 281 277 282 267 268 347 300 268 259 267 265 256 254 247 234 238 237 219 203 196 192 179 162 168 164 142 126 112 106 98 93 100 106
310 299 283 264 254 220 194 210 225 225 233 246 245 252 261 263 269 274 281 299 298 277 263 269 249 226 252 262 248 226 210 208 227 233 239 235 218 230 235 216 187 218 274 292 277 276 270 275 274 255 257 255 228 230 270 264 258 255 266 292 299 271 263 254 254 256 262 265 263 266 261 253 258 243 187 188 183 184 185 159 139 137 126 111 103 99 100 101
286 274 277 257 237 188 171 193 220 233 233 242 246 245 253 258 260 265 273 298 290 276 265 271 266 247 250 262 268 255 239 232 234 239 242 230 193 54 275 250 188 200 253 272 266 281 275 271 273 260 267 269 239 213 251 257 246 237 241 261 264 264 268 255 255 256 257 263 266 272 271 262 339 4 165 178 174 243 212 161 148 146 125 114 112 107 99 96
276 265 269 222 183 159 162 189 213 233 232 237 248 250 256 259 257 260 262 262 274 279 278 276 274 272 266 258 260 260 255 251 245 249 258 237 163 177 228 243 228 205 185 244 272 293 284 262 273 274 277 277 249 223 253 277 277 254 242 251 259 270 273 261 256 253 261 271 273 272 267 246 57 21 103 142 132 292 276 189 146 133 121 116 110 104 101 96
284 275 242 129 139 155 168 198 216 231 235 237 246 250 259 277 276 274 273 237 262 275 282 282 285 293 294 277 267 261 261 261 254 251 256 251 234 215 215 206 226 231 195 216 256 291 294 274 277 274 271 270 258 253 264 277 283 284 274 257 262 270 275 271 255 246 265 280 292 289 280 15 33 315 86 137 155 164 300 312 125 122 115 111 106 105 105 100
262 267 166 131 142 168 186 227 228 226 237 241 247 247 251 285 285 276 271 248 244 250 266 272 272 279 285 280 279 275 272 273 267 262 257 262 283 49 80 124 167 283 300 278 301 34 26 303 282 273 268 274 277 278 279 272 269 281 282 266 271 282 285 279 267 270 294 270 239 268 278 24 345 313 26 59 117 119 19 321 115 117 116 116 117 114 110 106
252 271 151 148 166 189 213 250 240 233 243 245 250 251 250 256 261 263 265 260 256 250 252 261 265 266 274 282 286 280 276 278 278 279 275 273 320 87 89 80 64 62 215 277 303 32 30 270 262 270 273 277 278 276 272 257 236 249 268 270 273 277 273 273 280 286 285 280 272 270 271 198 252 297 56 78 96 121 173 183 129 119 124 127 125 121 117 113
297 292 202 162 174 198 226 244 242 244 248 246 247 251 253 255 256 258 260 258 259 261 259 267 279 279 282 287 284 278 281 285 283 284 280 277 31 100 110 101 98 270 304 25 17 36 320 257 246 263 273 273 265 256 255 248 228 222 256 276 281 283 275 270 288 295 272 274 276 272 279 154 143 313 51 139 171 172 180 166 144 139 140 134 129 127 125 119
307 281 258 186 172 197 233 244 260 267 274 277 272 264 261 256 250 260 279 286 285 284 283 288 289 282 281 286 283 277 273 270 273 276 275 271 205 129 173 149 158 311 32 47 49 15 284 282 282 274 270 273 270 268 288 302 292 282 276 274 282 295 288 274 282 286 267 272 270 263 277 159 153 188 234 246 228 194 188 175 156 152 149 140 132 130 131 129
302 281 285 236 188 227 239 240 263 266 274 291 294 279 264 258 250 242 267 291 283 276 281 290 287 281 280 282 283 282 273 267 269 267 266 264 245 198 181 215 211 88 63 43 34 347 288 276 276 270 267 274 280 292 310 319 309 296 286 277 270 280 290 284 265 268 275 294 283 269 287 292 244 238 190 226 272 250 233 218 175 152 146 140 133 136 139 135
300 306 348 346 307 279 245 241 269 266 271 288 290 284 267 261 266 246 181 254 278 277 280 284 279 274 277 276 274 284 284 279 276 273 267 262 263 237 118 193 232 95 77 19 336 253 275 260 259 263 264 270 275 284 293 297 294 290 288 284 275 274 284 277 252 264 274 282 276 283 314 318 312 325 351 307 272 269 265 240 160 144 153 146 152 172 160 150
349 319 15 13 322 287 313 340 323 308 313 310 292 298 288 271 272 261 218 254 297 302 290 279 276 268 267 266 260 266 275 274 278 288 287 275 271 254 131 186 183 109 115 271 242 209 253 257 259 262 263 268 272 278 283 284 284 285 286 288 286 285 285 273 262 272 279 277 277 289 301 296 297 322 332 318 308 295 288 281 173 202 200 171 184 213 199 184
5 335 5 2 325 307 334 339 325 311 314 320 316 310 293 280 280 278 272 293 320 316 302 287 287 284 279 274 270 278 301 307 309 322 326 314 295 281 247 236 215 159 185 245 239 213 240 260 274 278 279 282 281 281 284 282 279 278 279 281 280 278 278 274 271 272 272 275 281 285 284 281 285 298 302 306 312 307 300 300 275 251 238 211 207 215 216 218
356 343 351 339 325 329 328 317 304 290 297 336 333 317 299 288 289 285 282 290 338 331 312 292 297 311 307 294 281 307 36 28 350 346 350 339 319 294 288 286 271 256 249 260 258 170 178 282 310 308 292 286 284 285 284 281 279 280 284 287 285 282 279 277 277 274 270 274 280 284 282 281 292 300 294 293 289 276 271 267 261 253 244 234 227 226 230 243
348 342 337 321 322 328 315 298 285 285 332 18 348 340 327 303 301 304 303 311 330 336 325 319 327 327 317 315 341 27 36 16 342 341 336 321 312 299 294 297 292 288 275 263 259 165 154 264 295 296 279 277 282 282 281 285 287 283 285 292 291 285 281 281 282 277 273 276 281 286 287 290 300 299 292 288 277 269 273 271 267 282 274 251 233 232 237 240
352 342 336 323 308 306 305 316 332 354 16 358 341 346 337 322 333 342 331 321 317 317 331 348 340 318 314 4 24 17 2 335 320 323 317 305 296 286 285 285 282 285 284 273 268 237 221 255 274 278 279 282 285 285 292 303 294 277 277 290 281 272 273 279 279 273 271 272 274 278 277 283 299 298 291 298 301 300 306 302 312 355 334 302 265 250 251 243